Showing default

FLOCK 4Q 28, 58280

Orbit data source: Space-Track

FLOCK 4Q 28, 58280 is a payload satellite owned by Planet (US) in SSO that was launched on Sat, 11 Nov 2023 UTC via an FALCON 9 launch vehicle from the Air Force Western Test Range (AFWTR). Payload-class satellites include a variety of spacecraft equipped with specific instruments for various scientific and technological missions. These include communications satellites like Starlink; space stations such as the ISS; scientific satellites like the Hubble; Earth observation satellites from companies like Planet Labs, Umbra, and HawkEye 360; GPS; miniature CubeSats for education and research; and military/defense satellites.

Loading next visibility...
Identifier
58280, 2023-174AA
Orbit
SSO
Country
Flag of USUS
Related business
Manufacturer
Planet
Mission
Partially operational Commercial Imaging
Bus & Motor
CUBESAT 3U, Unknown motor
Mass
5.7 kg wet, 5.7 kg dry
Launch date (UTC)
2023-11-11 (3 years ago)
Launch vehicle
FALCON 9
Launch site
Air Force Western Test Range (AFWTR)
Object type
Payload
Rocket body
Debris
Shape & HBR
Box + 2 Pan, 1.0 m
Radar Cross Section
0.072 m², Medium (>0.1 m² and < 1m²)

Expand to show TLE details & history
Last TLE update: 2 days ago

TLE from 2 days ago
0 FLOCK 4Q 28
1 58280U 23174AA  26171.19991630  .00022713  00000-0  33528-3 0  9994
2 58280  97.3879 262.4938 0006301 138.1770 221.9966 15.55348929146219
Epoch: 2026-06-20T04:47Z
TLE epoch observation values (Epoch: 2026-06-20T04:47:52.768Z)
Latitude
-0.00009°
Longitude
-77.89401°
Altitude
407.454 km
Speed
7.664 km/s
True Right ascension
17h 29m 58s
True Declination
0° 00' 00"
Sunlit
Object was in full shadow at epoch
Visualization orbit readout
Latitude
Unknown
Longitude
Unknown
Altitude
Unknown
Speed
Unknown
Apparent Right ascension
Unknown
Apparent Declination
Unknown
Sunlit
N/A
Visualization observer readout
Local Sidereal Time
21:37:03
Azimuth
Unknown
Elevation
Unknown
Doppler factor
Unknown
Orbital elements
Apogee altitude
402.326 km
Perigee altitude
393.787 km
Semi-major axis
6,776.194 km
Eccentricity
0.00063
Inclination
97.3879°
RAAN
262.4938°
Arg. of periapsis
138.177°
True anomaly
221.94832°
Mean anomaly
221.9966°
Eccentric anomaly
221.97246°
Mean motion
3.89103 °/min
Orbital period
92.52 mins
BSTAR
0.00033528
Loading maneuver chart data...
Computing Atmospheric mass density...

Documentation

Showing up to 5 results
|